Location: Brunembert
(50.7122°N, 1.8935°E)
Time: 09:28:14
(UTC+00:00)

NOSS 3-1 (C) - Pass Details

Date: 22 April 2021
Orbit: 732 x 1476 km, 63.4° (Epoch: 18 April)

Event Time Altitude Azimuth Distance (km) Brightness Sun altitude
Rises 21:05:35 0° 315° (NW) 3,835 8.4 -17.3°
Reaches altitude 10° 21:08:03 10° 316° (NW) 2,977 7.4 -17.5°
Maximum altitude 21:15:19 84° 45° (NE) 1,271 4.0 -18.3°
Enters shadow 21:20:23 27° 133° (SE) 2,332 4.9 -18.8°
